Wind_Speed
44 43 45 47 49 50 51 52 52 52 52 51 51 50 49 48 49 49 50 50 48 47 46 45 45 46 47 48 50 51 53 54 56 57 58 59 60 61 62 63 63 62 61 61 61 61 61 60 58 56 54 52 51 50 49 48 48 48 48 48 49 49 48 47 44 45 48 48 45 45 44 41 41 41 39 39 39 36 35 36 36 37 38 40 41
47 45 45 46 48 49 51 52 52 53 54 54 53 52 50 50 50 51 50 49 47 46 45 46 47 49 50 52 53 55 56 58 59 60 61 61 62 64 65 64 63 62 62 63 63 64 63 61 59 58 56 54 53 51 50 49 48 49 49 48 49 50 50 50 48 47 48 50 48 46 45 42 42 43 41 39 41 40 38 38 37 37 40 41 40
49 49 48 47 47 49 50 51 52 54 55 55 55 54 53 52 51 50 49 47 46 47 48 50 51 52 54 55 57 58 60 61 62 63 63 64 65 66 66 65 64 64 65 65 66 66 65 63 61 59 57 56 54 53 51 49 48 48 49 49 49 50 51 50 50 49 49 51 52 50 47 45 45 46 44 41 40 39 37 38 39 39 41 43 42
49 51 51 50 49 50 51 52 52 53 53 53 53 53 52 51 49 47 47 47 48 50 52 53 55 56 57 58 60 62 63 64 64 64 65 65 67 67 67 66 66 67 68 68 69 69 67 65 63 61 59 57 56 54 52 51 49 48 49 50 49 50 51 51 50 50 49 50 53 52 50 49 48 49 49 46 43 40 37 38 39 40 43 46 46
49 50 51 52 51 52 52 53 53 53 52 52 52 51 50 49 48 47 48 50 52 53 55 56 57 58 59 61 63 64 65 65 65 65 65 67 68 68 68 69 70 70 71 71 70 70 68 66 65 62 60 58 56 55 54 53 52 51 50 51 51 51 52 52 51 51 50 50 52 52 51 51 51 52 52 50 48 45 42 42 40 39 43 47 48
48 48 49 51 52 53 53 52 52 51 51 51 51 51 50 49 49 50 51 53 55 57 58 59 60 60 61 63 64 64 64 64 65 66 67 69 69 70 71 72 73 73 73 72 72 70 69 67 65 63 61 59 57 56 56 55 54 55 55 55 55 54 54 55 55 54 53 52 52 53 52 51 52 53 53 52 51 50 46 44 43 42 43 47 49
49 48 47 48 50 51 50 50 49 49 50 50 50 50 50 50 51 53 54 56 58 59 60 61 62 63 63 63 63 63 64 64 66 68 69 71 72 73 74 75 75 74 74 73 72 70 69 66 64 62 61 59 58 57 57 57 58 58 59 59 59 59 59 59 58 58 58 57 55 55 54 53 53 53 53 53 53 53 51 47 46 48 49 49 50
52 51 49 48 47 47 47 48 49 49 50 50 50 51 51 52 54 55 56 58 59 61 61 62 63 62 62 62 62 63 65 66 68 70 72 73 75 76 76 76 75 75 74 73 72 70 68 66 63 62 61 59 59 59 59 59 61 62 63 63 63 64 64 64 62 61 60 60 59 58 57 56 54 53 55 55 55 55 55 52 50 52 53 52 52
53 53 53 49 46 45 46 48 49 50 50 50 51 52 52 53 54 55 58 60 61 61 61 61 60 61 61 62 64 65 67 69 71 73 75 76 77 77 76 76 75 75 74 73 71 69 67 65 63 62 62 61 60 60 61 62 63 65 67 68 68 68 68 67 66 65 63 62 61 61 60 58 57 55 56 57 57 58 58 56 56 56 55 54 52
51 51 50 48 45 44 45 47 49 50 51 52 52 53 54 55 56 58 59 60 60 59 59 60 61 62 63 65 66 68 71 73 75 76 77 77 77 76 76 76 75 74 73 72 69 67 65 64 63 62 62 63 63 63 64 65 66 67 68 70 70 71 70 69 69 67 65 64 63 62 61 60 59 57 57 58 59 60 60 59 59 59 58 58 56
51 50 49 48 47 45 46 48 50 52 53 54 55 56 57 57 58 59 59 58 58 59 60 62 64 65 66 68 70 72 74 76 77 77 77 76 76 76 76 76 75 73 72 70 67 65 64 63 63 62 63 64 66 67 67 68 69 69 70 70 70 70 69 69 68 67 65 64 63 62 61 60 60 58 58 59 59 60 61 60 60 60 59 59 60
52 51 51 51 50 48 48 49 51 53 55 56 57 57 58 58 58 58 57 58 59 61 63 66 67 68 70 72 74 75 77 77 77 76 76 76 76 77 76 75 74 72 70 67 65 64 63 63 63 64 65 67 68 69 70 70 70 69 69 68 67 67 67 67 67 67 66 65 64 62 61 60 60 59 58 59 60 61 61 61 60 60 59 58 60
54 52 52 52 52 51 51 52 52 54 55 55 55 55 55 56 56 57 58 60 63 65 68 70 71 72 73 75 76 78 77 76 75 75 76 76 77 77 76 74 72 70 67 65 64 63 64 65 66 67 68 68 69 70 70 70 69 68 67 66 67 67 67 68 68 68 67 66 66 64 63 61 60 59 58 58 59 60 61 62 60 59 59 58 60
57 55 54 53 53 52 52 52 52 53 53 52 53 54 55 57 58 60 63 65 67 69 70 71 73 74 76 78 78 78 76 74 74 75 76 77 78 77 75 72 70 67 66 65 65 65 66 67 67 68 69 69 70 70 69 68 68 68 68 68 69 69 70 70 71 70 69 68 68 67 65 63 61 60 59 58 59 59 60 62 61 58 59 59 60
58 57 56 55 54 53 52 51 51 51 52 53 54 56 58 59 61 63 65 66 67 68 70 72 75 77 79 79 78 75 74 73 74 76 78 78 78 76 73 70 68 67 67 67 67 67 68 69 69 70 71 70 70 69 68 69 69 70 71 72 72 72 72 71 71 70 70 69 68 67 66 65 64 62 60 59 58 59 60 61 60 59 59 60 61
58 58 57 56 54 52 50 49 50 51 53 55 57 58 59 60 62 64 65 67 68 70 73 76 79 81 80 78 75 73 72 73 75 77 79 78 76 74 71 69 68 68 68 69 69 70 71 72 72 73 72 71 70 70 70 71 72 72 72 72 71 70 69 69 68 66 66 65 65 64 63 64 64 64 62 61 59 59 60 60 60 59 59 60 61
56 56 55 54 52 51 51 52 53 55 56 57 58 60 61 63 65 67 68 69 71 74 77 79 81 80 78 75 73 72 72 75 77 79 78 77 75 72 71 70 70 70 71 71 72 73 74 75 75 74 73 72 72 73 74 74 73 71 69 67 66 65 64 64 63 61 59 59 59 57 56 58 59 61 62 62 61 61 60 60 60 60 60 61 62
53 53 53 52 52 52 52 53 55 56 58 60 61 63 65 67 70 71 72 73 76 78 80 80 78 76 73 72 72 73 74 77 78 79 77 75 74 72 71 71 71 72 73 74 75 76 77 77 75 74 73 74 74 75 75 74 71 68 65 64 62 61 60 59 58 56 54 54 54 52 50 51 53 55 58 59 60 61 61 61 60 59 60 61 63
53 53 54 54 54 54 54 55 57 59 61 63 66 68 69 71 72 74 76 77 78 79 79 77 74 72 71 72 73 75 77 79 79 78 76 74 73 72 72 72 73 74 76 77 78 79 78 76 75 74 75 75 76 75 73 70 67 64 62 60 59 58 57 56 54 52 50 49 49 47 46 47 49 50 52 54 55 57 60 61 60 59 60 62 64
55 56 57 58 58 59 59 60 62 64 66 68 69 70 71 73 75 77 78 79 78 77 75 73 71 71 72 74 76 78 80 81 80 78 75 73 72 72 73 74 75 77 79 80 80 79 77 76 75 75 76 76 75 72 69 66 63 61 58 57 56 55 54 53 52 49 46 45 44 43 42 45 46 45 46 49 51 53 56 59 61 61 61 62 64
60 60 61 61 62 63 63 64 66 67 69 70 71 72 74 75 76 77 77 77 75 73 71 70 71 72 74 76 78 80 80 79 77 75 73 72 72 73 75 76 78 80 81 80 79 77 76 76 76 76 76 75 72 68 66 63 61 58 56 55 53 52 52 51 49 47 44 41 39 38 39 41 43 42 42 45 48 49 52 55 59 62 62 63 64
66 66 66 66 67 67 68 69 70 71 72 73 74 75 76 76 76 75 74 73 72 70 69 70 71 73 75 77 78 78 77 75 74 72 72 72 74 75 77 79 80 81 80 79 77 76 76 76 77 77 75 72 69 66 63 61 59 57 55 53 51 50 49 48 47 46 43 39 36 35 35 37 39 39 40 42 45 47 49 52 56 60 62 63 64
66 67 68 69 70 71 71 72 73 74 74 75 75 75 74 73 72 72 71 70 69 68 69 70 72 74 77 78 77 76 74 73 72 71 72 74 75 77 79 79 79 78 77 77 76 76 77 77 77 76 73 69 66 63 61 59 57 55 53 51 49 47 45 44 43 42 41 38 35 33 33 34 35 36 38 41 43 45 47 50 53 57 61 63 64
66 68 69 70 71 71 72 72 72 73 73 73 73 72 71 70 70 70 69 67 67 68 70 72 74 76 77 76 74 73 71 71 71 72 74 75 76 77 77 76 76 76 76 76 76 77 78 78 76 73 69 66 63 61 59 57 54 52 50 48 46 45 43 42 40 39 38 36 33 31 31 31 32 34 36 39 41 43 45 47 50 53 57 61 63
68 69 70 70 70 70 71 71 71 71 71 71 70 69 69 69 69 68 67 66 67 69 71 73 75 75 74 72 71 70 70 71 72 73 74 74 74 74 74 74 74 74 75 76 77 79 79 76 73 69 66 63 60 58 56 54 52 49 48 46 44 42 41 39 38 36 35 33 31 30 29 29 30 32 34 37 39 40 41 43 46 49 53 58 62
67 68 68 69 69 69 70 70 70 71 70 70 69 69 68 68 67 66 66 67 68 70 72 74 73 71 70 68 68 69 70 71 71 71 71 71 71 72 72 72 73 74 75 77 79 78 76 72 69 66 63 60 58 56 54 52 49 47 46 45 43 40 38 36 35 34 32 31 29 28 27 27 28 30 32 34 36 36 37 40 43 47 50 55 60
67 67 68 69 69 69 70 70 71 71 70 70 69 68 67 66 66 66 66 68 70 71 72 71 69 68 67 67 68 68 68 68 69 69 69 70 70 70 71 72 73 75 77 78 77 74 71 68 65 62 60 58 56 54 52 49 47 45 44 43 41 39 37 34 32 31 30 29 27 26 26 26 27 28 30 32 34 35 36 39 42 45 49 52 58
67 68 69 69 70 70 70 70 71 70 70 68 67 66 65 65 65 66 67 69 70 70 69 67 66 66 66 66 66 66 66 67 67 68 68 69 69 70 71 73 74 76 76 75 72 69 66 64 62 59 57 55 53 51 49 47 45 44 42 40 39 37 35 32 30 29 28 27 26 24 24 24 25 27 28 30 32 34 36 39 41 44 47 50 55
68 68 69 69 69 69 69 69 68 67 66 65 64 63 63 64 64 66 68 68 68 67 65 64 64 65 65 65 65 65 66 66 66 67 68 69 70 71 72 73 74 74 72 70 68 65 63 61 59 56 54 52 49 47 46 44 43 42 40 38 37 35 34 32 29 27 26 26 25 23 23 23 24 26 27 29 31 33 35 37 39 42 46 49 53
68 68 68 68 67 67 66 65 63 62 61 61 61 61 62 63 65 66 66 66 65 63 62 62 63 63 64 64 64 65 65 65 66 67 68 69 70 71 72 73 73 71 69 66 64 62 60 58 56 53 51 49 47 45 43 42 41 40 38 36 35 33 32 31 29 27 25 25 24 23 22 22 23 25 26 28 30 32 34 36 38 40 44 47 51
65 65 65 64 63 62 60 59 58 57 58 58 60 61 62 64 65 65 64 62 61 60 61 61 62 63 63 64 64 64 64 65 66 68 69 69 70 72 72 71 69 68 66 64 62 60 57 55 52 50 48 46 44 43 42 41 39 38 36 34 33 32 31 29 28 26 24 23 22 22 22 21 22 23 25 27 29 30 32 34 36 39 42 46 49
61 61 60 59 58 57 56 55 55 56 57 58 60 61 62 63 62 62 60 59 59 59 60 61 62 63 63 63 63 64 64 66 67 68 69 70 71 71 70 69 67 66 64 62 60 58 55 51 49 47 45 43 42 41 41 40 38 37 35 33 32 31 30 29 27 26 24 22 21 21 21 21 21 22 23 26 27 29 31 33 35 38 41 44 47
57 56 56 55 54 54 54 54 55 56 57 59 60 61 61 60 59 59 58 58 58 59 61 61 62 63 63 63 63 64 65 66 67 69 70 71 71 70 69 67 66 64 62 60 58 55 51 48 46 44 42 41 41 40 39 38 37 36 34 33 31 30 30 29 27 26 24 23 21 20 20 20 20 21 22 24 26 28 30 32 34 37 40 43 46
53 53 53 53 53 53 54 54 55 57 58 59 59 59 59 58 57 57 57 58 59 60 61 62 62 62 63 63 63 64 66 67 68 69 71 71 70 69 68 66 65 63 61 58 55 51 48 45 43 41 40 40 39 39 38 37 36 34 33 32 31 29 29 28 27 26 25 23 21 20 19 19 19 20 21 22 24 27 29 31 33 35 38 41 45
50 51 51 52 53 53 53 54 56 57 57 57 57 57 56 56 56 56 57 58 59 60 61 62 62 62 62 63 64 65 66 68 69 70 71 70 69 68 67 65 63 61 58 55 51 48 45 43 41 40 39 39 38 38 37 36 35 34 33 32 30 29 28 27 27 26 25 24 22 21 19 19 18 19 20 21 23 25 27 29 32 34 37 40 43
49 50 51 52 52 52 53 54 55 56 56 55 55 55 55 55 56 57 58 59 60 61 62 62 62 62 63 64 65 66 68 69 71 71 70 69 68 67 65 63 61 59 55 51 48 45 42 40 39 38 38 38 37 37 36 35 34 33 32 32 30 29 27 26 26 25 25 24 23 22 21 19 18 18 19 20 21 23 25 28 30 32 35 38 41
48 49 50 51 51 52 53 53 54 54 54 54 54 54 55 55 57 58 59 60 61 62 62 62 63 63 64 65 67 68 70 71 71 70 70 69 68 66 64 62 59 55 51 47 44 42 40 38 38 37 37 36 36 35 34 34 33 32 32 32 31 29 28 26 26 25 24 24 23 22 22 21 19 19 18 19 20 21 23 26 28 30 33 36 39
47 48 49 50 51 51 52 52 52 53 53 54 55 55 56 57 58 59 60 61 62 62 63 63 63 64 65 67 68 70 71 71 71 70 69 68 66 64 62 59 55 51 47 44 42 40 38 37 37 37 36 35 34 33 33 32 32 32 31 31 30 30 29 28 27 26 25 24 23 22 21 21 21 20 19 19 19 20 22 24 26 28 31 33 36
47 47 48 49 50 51 51 51 52 52 53 54 55 56 57 58 59 60 61 62 62 63 63 64 64 66 67 68 70 71 72 71 71 70 69 67 65 62 59 55 51 47 44 42 40 38 37 37 37 36 35 34 33 32 31 31 31 31 30 30 30 30 29 29 29 28 27 26 24 23 22 21 21 21 20 20 20 20 21 22 24 26 29 31 34
46 48 49 49 50 50 51 51 52 53 53 54 55 57 58 59 60 61 62 62 63 63 64 65 66 67 69 71 72 72 72 71 71 70 68 65 62 59 54 50 47 44 42 40 38 38 37 37 36 36 35 34 32 31 30 30 30 29 29 29 29 29 29 30 30 30 29 28 26 25 23 22 21 20 20 21 21 21 21 22 23 24 27 29 31
47 48 49 49 50 50 51 51 52 53 54 55 56 57 58 59 61 62 62 63 63 64 65 66 68 69 71 72 73 73 72 71 70 68 66 62 58 54 49 46 44 41 40 39 38 38 37 37 36 35 34 33 31 30 30 30 29 29 28 28 28 29 29 30 30 30 30 29 28 27 25 24 22 21 21 20 21 21 22 22 23 24 25 27 29
47 48 49 49 50 50 51 51 52 53 54 55 57 58 60 61 62 62 63 63 64 65 66 68 69 71 72 73 73 72 72 70 68 65 62 57 53 48 45 43 41 40 39 39 38 38 37 36 35 34 33 32 31 30 30 29 28 28 28 28 29 29 30 30 30 30 30 30 29 28 27 26 25 23 22 21 21 21 21 22 23 24 25 26 28
47 48 49 49 50 50 51 52 53 54 55 57 59 60 61 62 62 63 63 64 65 66 67 69 71 72 72 72 72 71 70 68 65 61 56 51 47 45 43 41 40 39 39 38 38 37 36 35 34 33 32 31 30 30 30 29 29 28 28 29 29 30 30 31 31 31 30 30 30 29 29 28 27 26 25 24 23 22 22 22 23 24 25 26 27
47 47 48 49 50 51 52 53 54 56 57 59 60 61 62 62 63 63 64 65 66 68 69 70 72 72 72 71 71 69 67 63 59 54 50 46 44 42 41 40 39 39 38 37 36 35 34 33 32 31 30 30 30 30 30 29 29 30 30 30 31 31 31 32 32 32 31 31 31 30 30 29 28 28 27 26 25 25 24 24 24 24 25 26 27
47 48 49 50 51 52 54 55 57 58 60 61 62 62 62 63 63 64 65 66 68 69 70 71 72 72 71 70 68 65 61 57 52 48 45 43 42 41 40 39 39 38 37 36 35 34 33 32 31 30 30 30 30 30 29 29 30 30 31 32 32 32 33 33 33 32 32 32 32 32 31 31 30 30 29 28 28 27 26 26 26 26 26 27 27
50 51 52 53 54 55 57 58 60 61 62 62 62 63 63 64 64 65 67 68 69 70 71 71 71 70 69 67 64 60 55 51 47 44 42 41 40 39 39 38 37 36 35 34 33 32 32 31 31 30 30 30 30 30 30 30 30 31 31 32 32 33 33 34 34 34 34 34 33 33 33 32 32 32 31 31 30 30 29 29 28 28 28 28 29
53 53 54 56 57 58 60 61 62 63 63 63 63 63 64 65 66 67 68 70 71 71 71 71 70 68 66 62 58 53 49 45 43 41 40 39 39 38 37 36 35 35 34 33 32 31 31 31 31 31 30 30 30 31 31 32 33 33 34 34 34 34 34 35 35 35 35 35 35 35 34 34 33 33 33 32 32 32 32 32 31 31 31 31 31
55 56 58 59 60 61 63 64 64 64 63 63 64 65 66 67 68 69 70 71 71 71 70 69 67 65 61 56 51 48 44 42 41 40 39 38 37 36 36 35 34 33 32 32 32 31 31 30 30 30 30 31 31 32 33 33 34 35 36 36 36 36 36 36 36 37 36 36 36 36 36 36 35 35 34 34 33 33 33 33 34 34 34 34 34
59 60 62 63 64 65 66 65 64 63 63 64 65 66 67 68 69 70 71 71 71 70 69 67 64 59 54 50 47 44 42 41 40 39 38 37 36 35 34 34 33 32 32 31 31 31 30 30 30 31 31 32 32 33 34 34 35 35 36 37 38 38 38 38 38 39 39 39 38 38 37 37 36 36 36 35 35 35 35 35 35 36 36 36 36
63 65 66 66 66 66 64 63 63 63 64 65 66 67 68 69 70 71 71 71 70 68 66 62 58 53 49 46 44 42 41 41 40 38 37 36 35 34 33 33 33 32 32 32 31 31 31 31 32 33 33 34 35 35 36 36 37 38 38 39 39 39 40 40 40 40 40 41 41 41 40 39 38 38 38 37 37 36 36 37 37 37 38 38 38
66 67 66 65 64 63 62 62 63 64 65 66 67 68 69 70 71 71 70 69 67 65 61 56 52 48 45 43 42 42 41 40 39 38 37 36 34 33 33 33 33 33 33 33 33 33 33 34 34 35 36 37 38 39 40 41 41 41 41 42 42 43 42 42 42 42 42 42 43 44 44 43 42 42 41 40 39 39 38 39 39 39 40 40 40
Wind_Direction
249 251 252 252 253 254 256 260 264 266 268 270 272 274 276 278 281 283 285 286 286 286 285 286 287 288 289 290 290 292 293 295 297 299 300 302 304 306 308 310 311 312 312 312 311 311 310 309 307 305 303 301 299 298 295 292 289 286 283 281 280 278 277 276 273 274 277 275 273 272 271 269 268 264 261 261 261 258 255 255 256 256 255 255 255
248 250 252 252 254 256 259 261 263 265 267 269 270 272 275 277 279 281 282 282 282 283 284 285 286 288 289 290 291 293 294 296 298 299 301 303 305 307 309 310 311 311 310 310 310 309 308 307 306 304 302 301 299 297 295 292 290 287 285 282 280 279 277 276 274 272 273 274 272 270 269 268 266 263 260 261 263 260 255 251 251 253 254 253 254
248 251 253 253 254 255 257 259 261 262 264 266 268 270 273 275 277 278 278 279 280 282 285 286 287 289 290 291 292 294 296 298 299 300 302 304 306 308 309 310 310 310 309 309 308 307 307 306 305 303 301 300 299 297 296 293 291 289 287 285 283 281 279 278 275 272 271 272 271 269 268 265 262 261 261 261 261 260 258 254 252 252 253 254 254
250 252 253 254 256 258 259 260 261 262 264 266 268 270 273 274 275 276 277 279 282 285 286 288 289 290 291 292 294 296 297 299 300 302 304 305 307 309 309 310 309 308 308 307 307 306 306 305 304 302 300 299 298 297 296 294 292 290 288 287 285 284 282 280 278 275 272 271 270 268 267 264 261 260 259 257 257 256 253 252 252 252 251 251 252
251 253 255 256 259 261 262 263 265 266 267 268 269 271 272 272 273 275 278 281 283 285 287 288 289 290 292 294 295 297 298 299 300 302 304 305 307 308 309 309 308 307 307 306 306 305 305 304 303 302 300 299 298 297 296 295 294 293 291 290 288 287 285 283 280 278 274 271 271 269 266 263 262 260 257 253 253 252 249 247 249 252 251 248 247
252 255 258 260 261 262 264 265 266 267 267 267 268 269 270 271 273 276 279 282 283 285 286 288 290 292 293 294 296 297 298 299 301 302 304 305 307 307 308 307 307 307 306 305 305 304 303 303 301 300 299 298 297 296 295 294 294 293 293 292 290 288 287 285 283 280 277 273 271 269 267 263 260 259 257 252 249 249 249 247 247 248 250 248 244
251 254 260 263 264 264 265 266 266 266 266 267 268 268 269 272 275 278 280 282 284 286 287 289 291 292 293 294 295 296 297 299 301 302 304 305 306 306 306 306 306 305 305 304 304 303 302 301 300 299 297 296 296 295 294 293 293 292 292 291 291 290 288 286 284 281 278 275 272 269 267 263 259 257 256 252 248 248 248 246 246 247 247 248 244
251 254 260 265 266 267 267 266 266 266 267 268 268 269 271 274 277 279 281 284 286 288 290 290 291 291 291 293 294 296 298 299 301 302 304 305 305 305 305 305 305 304 304 303 303 302 301 300 299 297 296 295 294 293 293 293 293 293 293 292 292 291 290 288 285 282 278 276 273 270 266 263 259 256 255 253 250 249 248 245 246 248 248 248 246
255 256 260 264 266 267 267 267 268 268 269 269 269 271 274 276 278 280 282 285 287 288 288 288 288 289 290 292 295 297 299 300 301 303 303 304 304 304 305 304 304 304 304 303 302 301 300 299 298 296 295 295 294 294 293 293 293 293 293 293 292 291 290 288 286 284 280 276 273 270 266 263 259 254 253 253 251 251 250 247 247 248 247 246 246
257 258 261 263 264 265 266 266 267 268 268 269 270 273 275 276 278 281 283 284 285 285 285 285 286 288 291 293 296 298 300 301 302 302 303 303 304 304 304 304 304 304 303 303 301 300 299 298 297 296 296 296 296 296 296 295 295 294 293 292 291 290 289 288 286 283 280 277 273 270 267 263 259 254 251 251 251 251 251 250 249 248 245 244 245
257 259 261 263 264 265 266 266 267 267 267 268 269 272 274 277 279 281 283 284 284 283 284 285 287 290 293 295 298 299 300 301 301 302 302 303 304 304 305 305 305 304 303 302 300 299 298 297 297 297 297 298 298 298 297 296 295 294 293 291 290 289 288 286 285 283 280 277 274 270 267 264 260 255 251 250 250 249 249 249 248 248 246 243 242
259 260 261 262 264 266 267 268 268 268 268 269 271 273 276 278 280 282 283 283 283 283 285 287 289 292 295 297 299 300 301 301 301 302 303 303 304 305 305 305 305 304 302 301 300 299 299 299 299 299 299 299 299 299 298 297 296 295 294 292 290 288 286 284 282 281 279 277 274 271 268 265 261 257 253 250 249 248 247 247 246 246 246 243 241
262 262 262 262 264 266 268 269 269 269 270 272 273 275 277 279 280 281 281 282 283 285 287 289 291 294 296 298 299 300 300 301 301 302 303 304 305 305 306 305 304 303 302 301 301 300 300 300 300 301 300 300 300 300 300 299 298 296 294 292 290 288 286 283 281 279 278 276 275 272 270 266 263 260 255 251 248 247 246 245 244 243 244 244 241
264 265 266 266 266 267 269 269 270 271 272 273 275 277 278 279 280 281 282 283 285 287 289 292 294 296 297 298 299 299 300 301 301 302 303 305 306 306 305 305 304 303 302 301 301 300 301 301 301 302 302 302 303 303 302 301 299 298 296 293 291 288 286 284 282 280 278 276 274 273 271 269 266 262 258 253 250 247 246 244 243 241 241 242 242
264 266 268 269 269 269 270 271 271 272 273 275 277 279 280 280 281 282 283 285 287 289 291 293 295 297 298 298 298 299 299 301 302 303 305 306 306 305 305 304 303 302 302 301 301 301 302 303 304 305 306 306 305 304 303 302 300 299 297 295 292 290 287 285 283 281 279 277 275 273 271 269 266 263 260 256 252 249 246 245 243 240 240 240 240
264 266 269 270 270 270 270 270 271 272 274 276 277 279 280 281 282 283 284 286 288 290 292 294 296 297 297 297 298 298 300 301 303 304 305 306 305 305 304 303 302 302 301 301 302 304 305 307 308 309 309 308 307 306 304 303 301 299 298 296 293 291 289 287 285 283 281 279 276 273 270 267 265 263 260 257 253 250 247 245 243 241 239 239 239
263 265 267 268 268 267 266 266 267 269 272 274 276 278 280 281 283 284 285 287 289 291 293 294 295 296 296 297 298 299 301 302 304 305 306 305 305 304 303 302 301 302 303 304 306 307 308 310 310 310 310 309 307 306 305 304 302 301 299 297 295 293 291 289 287 285 282 280 278 275 271 267 264 261 259 256 253 250 247 245 243 240 239 239 238
261 262 264 265 266 266 266 266 267 269 271 273 275 278 280 282 284 285 286 288 290 292 293 294 295 295 296 297 299 300 302 303 305 306 305 304 303 302 301 302 303 304 306 307 308 309 310 311 311 310 309 309 308 307 306 305 304 303 301 299 297 295 293 291 289 287 284 282 279 276 272 267 263 259 257 254 251 249 247 244 242 239 238 237 237
259 260 262 264 265 267 267 267 268 270 272 274 276 279 281 283 285 286 288 289 291 293 294 294 294 295 296 298 300 302 303 305 305 305 304 303 302 302 303 304 305 306 307 308 309 310 310 310 310 310 309 309 308 308 307 306 305 303 302 301 299 297 296 294 292 290 287 283 280 277 272 267 263 258 255 253 251 248 245 243 241 238 236 235 236
259 261 263 264 266 267 268 269 270 272 274 276 278 280 282 284 286 288 290 291 293 294 294 295 296 297 299 301 302 304 305 305 305 304 304 303 303 304 305 306 306 306 307 308 309 309 310 310 309 309 309 310 310 309 308 307 305 305 304 303 302 300 298 296 295 293 290 285 281 277 272 267 263 259 254 252 249 247 244 241 239 237 234 233 234
259 261 263 265 266 268 270 271 272 273 275 277 279 281 282 284 286 288 290 292 294 295 296 297 299 300 302 303 304 304 304 304 304 304 304 304 304 304 305 305 305 305 306 308 309 309 309 309 309 310 311 311 311 310 309 308 307 307 307 306 305 303 301 299 298 296 293 289 283 278 271 266 263 260 254 250 247 244 242 239 237 235 233 232 231
261 261 263 264 266 267 269 271 272 274 275 277 279 281 283 285 287 289 291 292 294 295 297 298 300 301 302 302 303 303 302 302 302 302 303 303 302 302 303 303 304 305 307 308 309 309 309 310 311 312 312 312 311 311 310 310 310 310 309 308 306 304 302 300 299 297 295 292 287 279 272 266 263 259 254 249 245 242 240 238 236 233 231 230 230
264 265 265 266 267 268 269 271 272 274 275 277 279 281 283 285 287 289 291 293 294 295 297 298 299 300 301 301 301 300 300 300 300 300 300 300 300 301 302 303 304 306 307 308 308 309 310 312 313 313 313 312 312 312 311 312 312 311 310 309 307 305 303 301 299 297 295 293 289 282 274 267 262 257 253 249 245 241 238 236 234 232 230 228 228
265 266 267 268 269 270 271 272 273 275 276 278 280 282 283 285 288 290 292 293 294 295 297 298 299 299 300 299 299 299 298 298 298 298 298 299 300 301 302 304 305 306 307 308 310 311 312 313 313 313 313 312 312 312 312 312 312 311 310 309 308 307 306 303 301 298 295 293 289 283 276 269 262 257 252 249 246 243 239 236 234 233 230 227 226
265 266 268 269 271 272 273 274 275 277 278 279 281 283 285 287 289 291 292 293 294 295 296 297 298 298 298 298 297 297 297 297 297 298 298 299 301 302 304 305 306 308 309 310 311 312 312 313 313 313 313 313 313 313 313 313 313 312 311 311 310 309 307 305 302 299 296 293 289 284 278 270 263 257 252 249 247 245 242 238 235 233 231 228 226
266 268 269 271 272 273 275 276 277 278 280 281 283 284 286 288 289 290 292 293 294 295 296 297 297 297 297 296 296 296 296 297 297 298 299 300 302 304 305 307 308 310 311 311 312 312 312 312 313 313 313 313 314 314 314 314 314 314 313 313 312 311 309 307 304 301 297 294 290 285 279 271 264 258 252 250 248 245 242 238 235 232 231 228 226
267 268 270 271 273 274 275 277 278 279 281 282 283 284 286 287 288 289 291 292 294 295 296 296 296 296 295 296 296 296 296 297 298 299 301 303 304 306 308 309 310 311 311 311 311 311 312 312 313 313 314 314 314 314 314 314 314 314 314 314 314 313 312 310 307 303 300 295 291 286 280 273 265 259 253 249 246 242 238 235 233 231 230 228 226
267 269 271 272 274 275 277 278 279 280 281 282 283 284 285 287 288 289 291 293 294 295 295 295 295 295 295 295 296 296 297 298 300 301 303 305 308 309 310 310 310 310 310 310 310 311 312 313 313 314 314 314 314 313 313 314 314 315 316 315 315 314 313 312 310 306 302 298 293 287 281 274 266 260 254 249 245 242 238 235 232 230 228 228 227
269 271 273 274 276 277 278 279 280 280 281 281 282 284 285 287 289 290 292 293 294 294 294 294 295 295 295 296 296 297 298 300 301 304 306 308 309 309 309 309 309 309 309 310 311 312 313 313 314 314 313 313 313 312 313 314 315 316 316 316 316 316 316 315 313 310 306 301 296 290 282 275 268 261 255 250 246 243 240 237 234 231 229 227 227
271 273 275 276 277 278 279 279 280 280 280 281 283 284 286 288 290 291 292 293 293 293 294 295 295 296 296 296 297 298 300 302 304 306 308 308 309 309 309 309 309 309 310 311 312 313 313 314 314 313 313 312 312 312 313 314 316 317 318 318 318 318 318 317 316 314 310 305 299 293 285 277 270 263 257 252 248 244 241 239 236 233 230 228 227
274 275 276 277 278 278 278 279 279 280 281 282 284 285 287 289 290 292 292 292 293 294 295 295 296 296 297 298 299 300 302 304 306 307 308 308 309 309 310 310 310 311 311 312 313 313 313 313 313 312 312 311 311 312 314 315 317 318 319 320 320 320 320 318 317 315 312 308 302 296 289 281 273 266 260 255 250 246 242 240 237 234 231 229 228
275 276 276 277 277 277 277 278 279 280 282 283 284 286 288 289 290 291 292 292 293 294 295 296 297 298 299 300 301 302 303 305 306 307 308 309 310 310 310 311 311 312 312 313 313 313 313 313 312 312 311 310 311 313 315 316 318 319 320 321 322 323 322 321 320 318 315 311 306 299 292 285 277 269 263 258 254 249 244 241 238 236 233 231 229
275 276 276 275 275 276 277 278 279 281 282 283 285 287 288 289 290 290 291 292 293 294 296 297 299 300 301 302 303 303 304 306 307 309 309 310 311 311 311 312 312 313 313 313 313 313 313 312 311 310 310 310 312 314 315 316 318 320 321 323 324 325 326 325 323 321 318 315 310 304 296 288 281 273 266 261 257 253 248 244 240 237 235 233 231
274 274 274 274 274 275 277 278 280 281 282 284 286 287 287 288 289 289 290 292 294 295 297 299 301 302 302 303 303 304 306 307 309 310 310 311 311 312 312 312 313 313 313 312 312 312 312 311 310 309 310 311 312 313 315 316 318 320 321 323 325 327 328 328 326 324 321 318 314 308 302 294 286 278 271 265 259 255 252 248 244 240 237 235 233
273 273 273 273 274 276 277 279 280 281 283 284 285 286 287 288 289 290 292 293 295 297 299 301 302 303 303 304 305 306 308 309 310 311 311 312 312 312 312 312 312 312 312 312 311 311 310 310 309 309 310 311 312 313 314 316 318 320 320 322 324 326 329 330 330 328 325 321 317 312 306 299 291 283 275 269 263 258 254 251 248 245 241 238 235
272 272 273 274 275 277 278 279 280 282 283 284 285 286 287 289 290 291 293 294 296 298 300 302 303 303 304 305 307 308 309 310 311 311 312 312 312 312 312 312 311 311 311 310 310 309 309 308 307 308 309 310 311 311 313 315 318 319 320 321 323 325 328 331 332 331 328 325 321 316 311 305 297 289 281 274 268 263 258 254 251 248 245 242 239
271 272 273 275 276 278 279 280 281 282 283 284 285 286 288 289 291 292 294 295 297 299 301 302 303 304 305 307 308 309 310 311 311 312 312 312 312 312 311 311 311 310 310 309 309 308 307 306 305 306 307 308 309 310 312 315 317 318 318 320 322 325 327 330 332 333 332 329 325 320 315 309 303 296 287 279 272 267 263 258 254 251 249 246 244
272 273 275 276 278 279 280 281 282 282 283 284 285 286 288 289 291 293 295 297 299 301 302 303 304 305 306 308 309 310 310 311 311 311 312 312 311 311 310 310 310 309 309 308 307 306 305 304 304 305 306 306 307 309 311 313 315 316 317 319 322 325 328 330 331 333 333 332 329 324 319 313 308 302 295 287 279 272 266 262 259 255 252 249 247
274 275 276 277 278 279 281 281 282 283 284 284 285 287 288 290 292 294 297 299 301 302 303 304 305 306 307 308 309 310 311 311 311 311 311 311 311 310 309 309 308 308 307 306 305 304 304 304 304 304 304 305 306 307 310 312 313 314 316 318 321 324 327 329 330 332 333 333 332 328 324 318 312 306 301 294 287 279 272 266 262 259 256 253 251
276 277 277 278 279 280 280 281 282 283 284 285 286 288 289 292 294 297 299 300 301 303 304 305 306 307 308 309 310 311 311 311 311 311 311 310 309 309 308 308 307 307 306 305 304 303 303 303 302 303 303 303 305 306 308 310 311 312 314 317 320 323 325 327 329 330 330 331 331 330 327 323 317 310 304 299 293 287 281 274 268 263 259 256 254
277 277 277 278 279 279 280 281 283 283 285 286 288 290 292 294 296 298 300 301 302 303 304 305 306 307 309 310 310 310 311 311 311 310 309 309 308 308 307 306 306 305 304 303 303 302 302 301 301 301 301 302 304 305 307 308 310 311 313 316 318 321 323 325 326 327 328 329 329 329 328 325 322 316 310 303 297 291 287 281 276 271 265 261 257
277 277 278 278 278 279 281 282 283 285 286 288 290 292 295 297 298 299 300 301 302 303 304 305 307 308 309 309 310 310 310 310 309 309 308 308 307 306 306 305 304 303 303 302 302 301 300 299 299 299 300 301 303 304 306 307 308 310 312 315 317 320 321 322 323 324 325 325 326 326 326 325 323 320 316 310 303 297 290 285 281 276 272 268 264
277 278 278 279 280 281 282 284 285 287 289 291 293 295 296 297 298 299 300 301 302 303 304 306 307 308 308 309 309 309 309 308 308 307 307 306 306 305 304 303 303 302 302 301 300 299 298 298 298 299 300 301 302 304 306 307 309 311 313 315 317 318 319 320 320 321 322 322 322 323 323 322 322 320 318 314 310 304 298 292 286 281 277 273 269
278 279 280 280 282 283 284 286 288 290 291 293 295 296 297 297 298 299 300 301 302 304 305 306 307 308 308 308 308 308 308 307 307 306 306 305 304 304 303 302 302 302 301 299 298 297 296 296 296 297 298 300 302 304 306 308 310 312 313 314 315 316 317 317 318 318 319 319 319 320 320 319 319 318 317 315 313 309 305 300 295 289 284 279 275
281 281 282 283 284 285 287 288 290 292 294 295 296 296 296 297 298 299 300 301 303 304 305 306 307 307 308 308 308 307 307 306 306 305 304 304 303 302 302 302 302 301 299 298 297 296 295 295 295 296 297 299 301 304 306 308 309 311 312 313 313 314 314 315 315 315 316 316 316 316 317 316 316 315 314 313 312 310 307 304 301 297 292 288 283
282 282 283 284 286 287 289 291 292 294 295 295 295 295 296 297 298 299 301 302 303 305 306 306 307 307 307 307 307 306 305 305 304 303 303 302 302 302 301 301 300 299 297 296 295 295 295 294 295 296 298 300 301 303 305 306 307 308 309 310 311 311 312 313 313 313 314 314 313 313 313 313 312 312 311 310 309 308 307 304 302 299 296 293 290
281 283 284 286 287 289 291 293 294 295 294 294 294 295 296 297 299 300 302 303 304 305 306 306 306 307 306 306 305 304 304 303 302 301 301 300 300 300 300 299 298 297 296 295 295 294 294 295 297 298 300 301 303 305 306 307 308 309 309 309 310 310 311 311 311 311 311 311 311 311 310 309 309 308 307 307 306 306 305 304 302 300 298 295 293
282 284 286 287 289 291 292 293 293 293 292 292 293 295 296 298 300 301 303 304 305 305 305 306 306 306 305 304 303 303 302 301 300 299 299 299 299 298 297 296 295 295 294 294 294 294 295 295 297 298 300 301 303 304 305 306 307 307 308 308 309 309 309 309 309 309 309 308 308 308 307 307 306 305 304 303 303 302 301 301 300 299 298 296 294
283 285 286 288 289 290 291 290 290 290 290 292 293 295 297 299 301 302 303 304 304 305 305 305 305 304 303 302 302 301 300 299 299 299 298 298 297 296 295 294 294 293 293 293 293 294 295 295 297 298 299 300 300 301 302 303 304 304 305 305 306 307 307 308 308 308 307 307 306 305 305 304 303 302 302 301 300 300 299 298 297 297 296 295 294
283 284 286 287 287 288 287 287 288 289 290 292 294 296 298 300 302 302 303 303 304 304 304 304 303 302 302 301 300 300 299 299 299 298 297 296 295 295 295 295 295 294 294 294 294 295 295 297 298 299 300 301 301 302 302 303 303 304 304 305 305 305 306 306 306 306 307 306 306 305 304 303 302 301 300 299 298 297 297 296 295 295 294 293 293
282 283 284 284 284 284 285 286 287 289 291 293 295 298 300 301 301 302 302 303 303 303 303 302 301 300 300 299 299 299 299 298 298 298 297 296 296 296 296 296 296 296 296 296 297 297 298 299 300 301 302 302 303 304 304 304 304 304 304 304 305 305 305 305 305 305 305 305 305 305 304 304 303 301 300 299 297 297 296 296 295 294 293 292 292
Height
10683 10683 10683 10683 10683 10683 10683 10682 10682 10682 10682 10682 10682 10683 10683 10683 10682 10682 10681 10681 10680 10679 10678 10677 10676 10675 10674 10672 10671 10670 10669 10667 10666 10664 10661 10659 10656 10654 10651 10648 10646 10642 10639 10637 10634 10631 10629 10626 10624 10621 10619 10616 10613 10611 10608 10606 10604 10602 10602 10601 10599 10597 10597 10598 10600 10599 10595 10594 10595 10594 10593 10594 10594 10593 10593 10593 10593 10595 10597 10597 10598 10598 10597 10596 10596
10678 10678 10678 10679 10679 10679 10679 10678 10678 10678 10678 10678 10678 10679 10679 10678 10678 10678 10677 10676 10675 10674 10673 10672 10671 10670 10668 10667 10666 10664 10663 10661 10659 10657 10655 10652 10650 10647 10644 10641 10638 10635 10632 10629 10626 10624 10621 10618 10616 10613 10610 10607 10605 10603 10600 10598 10596 10594 10592 10592 10591 10589 10588 10588 10590 10591 10589 10585 10585 10586 10585 10586 10586 10584 10585 10587 10586 10587 10589 10589 10590 10590 10589 10588 10589
10674 10674 10674 10675 10676 10675 10675 10675 10674 10674 10675 10675 10675 10675 10675 10675 10675 10674 10673 10671 10670 10669 10668 10666 10665 10664 10663 10661 10660 10658 10656 10654 10652 10650 10648 10645 10642 10639 10636 10633 10630 10627 10624 10621 10618 10616 10613 10610 10608 10605 10601 10598 10596 10594 10592 10590 10588 10586 10584 10583 10582 10581 10580 10580 10580 10582 10582 10578 10576 10577 10577 10577 10577 10576 10577 10579 10580 10581 10583 10583 10584 10584 10583 10583 10584
10670 10669 10669 10670 10671 10671 10671 10671 10671 10671 10672 10673 10672 10672 10671 10671 10670 10669 10667 10666 10665 10664 10662 10661 10659 10658 10657 10655 10653 10652 10650 10647 10645 10643 10641 10638 10634 10631 10628 10625 10622 10619 10616 10613 10609 10606 10604 10601 10598 10596 10593 10590 10587 10585 10583 10582 10580 10578 10576 10574 10574 10573 10571 10571 10571 10572 10573 10571 10568 10568 10569 10568 10568 10568 10568 10570 10572 10574 10575 10575 10575 10577 10576 10576 10576
10665 10665 10665 10665 10666 10665 10666 10666 10666 10667 10668 10668 10667 10667 10666 10666 10665 10663 10662 10661 10659 10658 10656 10655 10653 10652 10651 10649 10647 10645 10643 10641 10638 10636 10633 10630 10626 10623 10620 10617 10614 10611 10608 10604 10601 10597 10594 10591 10589 10586 10583 10581 10579 10576 10574 10572 10571 10569 10568 10566 10565 10564 10562 10561 10561 10561 10562 10562 10560 10559 10559 10559 10559 10558 10559 10561 10562 10564 10564 10565 10566 10566 10565 10566 10567
10660 10660 10660 10660 10660 10660 10661 10662 10662 10662 10663 10663 10662 10661 10661 10660 10659 10658 10657 10655 10653 10651 10650 10649 10647 10646 10644 10642 10640 10638 10636 10634 10631 10628 10625 10622 10619 10616 10612 10609 10605 10602 10599 10595 10592 10589 10586 10583 10579 10577 10574 10572 10570 10568 10565 10563 10562 10560 10558 10557 10555 10555 10554 10552 10551 10550 10550 10551 10551 10550 10550 10550 10549 10548 10549 10551 10552 10553 10555 10557 10557 10555 10555 10556 10558
10655 10655 10655 10655 10654 10655 10656 10656 10656 10656 10657 10657 10657 10656 10655 10655 10654 10652 10650 10648 10647 10646 10644 10643 10642 10640 10638 10636 10634 10632 10629 10627 10624 10621 10618 10615 10612 10608 10604 10601 10597 10593 10590 10586 10583 10580 10577 10574 10571 10568 10566 10564 10561 10559 10557 10554 10552 10550 10549 10547 10545 10544 10543 10542 10541 10540 10539 10539 10539 10540 10540 10540 10540 10539 10540 10540 10542 10543 10545 10547 10548 10546 10547 10548 10549
10650 10650 10650 10650 10650 10651 10651 10651 10650 10651 10651 10652 10651 10651 10650 10649 10648 10646 10644 10642 10641 10640 10639 10637 10635 10634 10632 10630 10628 10625 10623 10620 10617 10614 10610 10607 10604 10600 10596 10593 10589 10585 10581 10577 10574 10571 10568 10565 10563 10560 10557 10555 10553 10551 10549 10546 10543 10541 10538 10537 10535 10533 10531 10529 10528 10528 10527 10527 10527 10527 10528 10528 10529 10530 10530 10530 10532 10533 10534 10538 10539 10538 10539 10541 10542
10645 10645 10645 10645 10645 10646 10646 10645 10645 10646 10646 10646 10646 10645 10644 10643 10641 10640 10638 10637 10636 10635 10633 10631 10629 10628 10626 10623 10621 10618 10616 10613 10609 10606 10603 10599 10596 10592 10588 10584 10580 10576 10572 10569 10565 10562 10559 10556 10553 10551 10548 10546 10544 10542 10540 10538 10535 10532 10528 10525 10523 10521 10519 10517 10515 10514 10514 10514 10514 10514 10515 10516 10517 10519 10520 10520 10521 10522 10523 10527 10529 10528 10530 10533 10534
10639 10639 10640 10641 10641 10641 10641 10641 10641 10641 10641 10640 10640 10639 10638 10637 10635 10634 10633 10632 10630 10629 10627 10625 10623 10621 10619 10617 10614 10611 10608 10605 10602 10598 10594 10591 10587 10583 10579 10575 10571 10568 10563 10560 10556 10553 10550 10547 10544 10542 10539 10536 10534 10532 10530 10527 10525 10522 10519 10515 10512 10509 10506 10504 10502 10501 10500 10499 10499 10500 10501 10502 10504 10507 10509 10509 10510 10511 10512 10516 10518 10518 10521 10524 10525
10634 10634 10635 10636 10636 10636 10636 10636 10636 10636 10635 10635 10634 10633 10632 10631 10630 10629 10628 10626 10625 10623 10620 10618 10616 10614 10612 10610 10607 10604 10601 10597 10594 10590 10586 10582 10578 10574 10570 10566 10562 10559 10555 10551 10548 10544 10541 10538 10536 10533 10530 10527 10523 10520 10518 10516 10513 10511 10507 10504 10501 10497 10494 10492 10489 10487 10486 10486 10486 10486 10488 10489 10490 10494 10497 10497 10498 10499 10501 10503 10506 10507 10510 10514 10516
10629 10630 10630 10631 10631 10632 10632 10631 10631 10631 10630 10630 10629 10628 10627 10626 10624 10623 10622 10620 10618 10616 10614 10611 10609 10607 10605 10602 10600 10596 10593 10589 10585 10581 10578 10574 10570 10566 10562 10558 10554 10550 10546 10543 10539 10536 10533 10530 10527 10524 10521 10518 10514 10510 10507 10503 10501 10498 10495 10491 10488 10484 10482 10480 10477 10475 10474 10473 10473 10473 10474 10476 10477 10480 10483 10485 10486 10487 10488 10491 10493 10496 10500 10503 10506
10624 10625 10625 10625 10626 10626 10626 10626 10626 10625 10625 10624 10623 10622 10621 10620 10619 10617 10615 10613 10611 10609 10607 10604 10602 10600 10598 10595 10592 10589 10585 10582 10577 10573 10570 10566 10562 10558 10553 10550 10545 10541 10538 10535 10531 10528 10525 10521 10518 10515 10512 10508 10505 10500 10496 10491 10487 10484 10481 10478 10475 10472 10469 10466 10464 10462 10462 10462 10461 10461 10461 10463 10465 10467 10470 10472 10474 10475 10476 10478 10482 10486 10490 10492 10495
10618 10618 10619 10620 10620 10620 10620 10620 10620 10619 10619 10618 10617 10616 10615 10614 10613 10611 10608 10606 10604 10602 10600 10597 10595 10593 10590 10588 10585 10581 10578 10574 10570 10565 10561 10557 10553 10549 10545 10541 10537 10534 10530 10527 10523 10520 10517 10514 10510 10506 10502 10499 10494 10490 10485 10480 10476 10472 10468 10465 10461 10458 10456 10453 10450 10449 10449 10449 10448 10448 10449 10450 10452 10453 10456 10459 10461 10463 10465 10466 10470 10476 10479 10481 10483
10612 10612 10613 10613 10613 10614 10614 10614 10613 10613 10612 10611 10610 10610 10609 10607 10606 10604 10601 10599 10597 10595 10593 10590 10588 10585 10583 10580 10577 10573 10570 10566 10562 10557 10553 10549 10545 10541 10537 10533 10529 10526 10522 10519 10516 10512 10508 10505 10500 10496 10492 10487 10483 10479 10474 10469 10465 10461 10456 10451 10447 10444 10441 10439 10437 10435 10435 10434 10434 10435 10436 10437 10438 10440 10443 10446 10449 10451 10453 10455 10459 10465 10468 10470 10472
10607 10607 10607 10607 10607 10608 10607 10607 10607 10606 10606 10605 10604 10603 10602 10600 10598 10596 10594 10592 10590 10588 10586 10583 10580 10577 10575 10572 10569 10566 10562 10558 10554 10549 10545 10540 10536 10532 10529 10525 10522 10518 10514 10510 10507 10503 10499 10495 10490 10486 10481 10477 10472 10468 10463 10459 10454 10449 10444 10439 10434 10430 10427 10425 10423 10422 10421 10420 10420 10421 10422 10422 10424 10426 10429 10432 10435 10438 10441 10444 10448 10453 10457 10459 10462
10603 10602 10602 10602 10602 10602 10601 10601 10601 10600 10600 10599 10598 10597 10595 10593 10591 10588 10587 10585 10583 10581 10578 10576 10573 10570 10566 10564 10561 10557 10554 10550 10545 10541 10537 10532 10528 10524 10521 10517 10514 10510 10506 10502 10498 10494 10489 10485 10481 10476 10471 10467 10462 10457 10452 10447 10442 10437 10433 10428 10423 10419 10416 10413 10410 10410 10409 10408 10407 10408 10409 10409 10410 10412 10415 10418 10421 10425 10428 10432 10436 10441 10445 10448 10451
10597 10597 10596 10597 10597 10596 10596 10596 10595 10595 10594 10593 10591 10590 10588 10586 10583 10581 10580 10578 10576 10574 10571 10568 10566 10562 10559 10556 10552 10549 10545 10541 10537 10533 10528 10524 10520 10517 10513 10509 10506 10502 10497 10493 10489 10485 10480 10476 10471 10467 10462 10457 10452 10446 10440 10435 10430 10425 10421 10417 10412 10408 10405 10402 10399 10398 10398 10397 10396 10396 10397 10397 10398 10399 10401 10404 10408 10412 10416 10420 10425 10430 10434 10437 10440
10591 10591 10591 10591 10591 10590 10590 10590 10589 10589 10588 10586 10584 10582 10580 10578 10576 10573 10572 10571 10569 10567 10563 10560 10557 10555 10551 10548 10544 10540 10536 10532 10529 10525 10521 10517 10513 10509 10505 10501 10497 10493 10489 10485 10481 10476 10472 10467 10462 10458 10453 10447 10442 10436 10430 10425 10420 10415 10411 10407 10402 10398 10395 10392 10389 10388 10387 10386 10385 10385 10385 10385 10386 10388 10390 10393 10396 10400 10404 10408 10413 10419 10423 10426 10429
10585 10585 10585 10585 10585 10584 10584 10584 10583 10582 10580 10578 10577 10575 10573 10571 10569 10567 10565 10563 10561 10559 10556 10552 10549 10546 10542 10539 10535 10531 10527 10524 10520 10516 10512 10508 10504 10500 10497 10493 10489 10485 10481 10476 10472 10468 10463 10459 10454 10449 10443 10438 10432 10426 10421 10415 10410 10406 10402 10398 10393 10389 10386 10383 10381 10379 10377 10376 10375 10375 10375 10375 10375 10377 10380 10383 10385 10389 10392 10396 10401 10407 10412 10415 10419
10579 10579 10579 10579 10579 10578 10578 10577 10576 10574 10573 10571 10570 10568 10566 10565 10563 10561 10559 10556 10553 10550 10547 10544 10541 10537 10534 10530 10527 10523 10519 10515 10512 10508 10504 10501 10497 10493 10489 10485 10481 10477 10472 10468 10464 10459 10455 10450 10445 10439 10434 10428 10422 10417 10411 10406 10402 10397 10393 10389 10385 10381 10378 10375 10372 10370 10368 10367 10366 10366 10366 10366 10366 10369 10371 10372 10375 10378 10382 10386 10390 10395 10400 10405 10409
10572 10572 10572 10572 10572 10571 10570 10570 10568 10567 10566 10564 10563 10561 10560 10558 10557 10555 10552 10550 10546 10543 10540 10537 10534 10531 10527 10524 10520 10516 10512 10509 10505 10501 10498 10494 10490 10486 10482 10478 10473 10469 10464 10460 10455 10451 10446 10441 10436 10430 10424 10418 10413 10408 10403 10398 10393 10389 10385 10382 10378 10374 10371 10368 10365 10362 10361 10359 10358 10358 10357 10358 10359 10360 10362 10363 10366 10369 10372 10376 10380 10384 10390 10395 10400
10565 10565 10565 10565 10565 10564 10564 10563 10562 10561 10559 10558 10556 10555 10554 10552 10550 10548 10546 10543 10540 10537 10534 10531 10528 10524 10521 10517 10513 10510 10506 10502 10498 10495 10491 10487 10483 10479 10475 10470 10466 10461 10456 10452 10447 10442 10437 10432 10426 10421 10415 10410 10405 10400 10395 10391 10386 10382 10378 10375 10371 10368 10365 10362 10359 10356 10354 10352 10351 10351 10350 10351 10351 10352 10353 10355 10357 10360 10363 10367 10370 10375 10380 10386 10391
10559 10559 10558 10558 10558 10557 10557 10556 10555 10554 10552 10551 10550 10549 10547 10546 10544 10541 10539 10536 10533 10530 10527 10524 10521 10517 10514 10510 10507 10503 10499 10495 10492 10488 10484 10481 10477 10472 10468 10464 10459 10454 10449 10444 10438 10433 10428 10423 10418 10413 10407 10402 10397 10393 10388 10384 10380 10376 10372 10369 10366 10362 10358 10355 10352 10350 10348 10346 10345 10344 10344 10344 10345 10346 10347 10348 10350 10353 10356 10360 10364 10368 10372 10377 10383
10553 10552 10552 10551 10551 10551 10550 10549 10548 10546 10545 10544 10543 10542 10540 10539 10537 10534 10532 10529 10526 10523 10520 10517 10514 10511 10507 10503 10500 10496 10492 10489 10485 10481 10477 10474 10470 10465 10461 10457 10452 10447 10441 10436 10430 10425 10420 10415 10410 10405 10400 10395 10390 10386 10382 10378 10374 10370 10366 10363 10360 10357 10353 10350 10347 10344 10342 10341 10339 10339 10338 10338 10339 10340 10341 10342 10344 10347 10351 10355 10359 10362 10365 10369 10374
10546 10546 10545 10545 10544 10544 10543 10542 10540 10539 10538 10537 10536 10535 10534 10532 10530 10527 10525 10522 10520 10517 10514 10510 10507 10504 10500 10496 10493 10489 10485 10481 10478 10474 10470 10467 10463 10459 10454 10449 10444 10439 10434 10428 10422 10417 10412 10407 10402 10397 10393 10388 10383 10379 10375 10372 10369 10365 10361 10357 10354 10351 10348 10345 10342 10339 10337 10336 10334 10334 10334 10333 10333 10334 10335 10336 10339 10342 10346 10350 10352 10355 10358 10362 10366
10539 10539 10539 10538 10538 10537 10536 10535 10534 10532 10531 10530 10529 10528 10527 10525 10523 10521 10518 10516 10513 10510 10507 10503 10500 10497 10493 10489 10486 10482 10478 10475 10471 10467 10463 10459 10455 10451 10446 10441 10436 10431 10426 10420 10415 10410 10405 10400 10395 10391 10386 10382 10377 10373 10370 10366 10363 10360 10357 10353 10349 10346 10343 10340 10337 10335 10333 10331 10330 10330 10329 10329 10329 10329 10330 10332 10334 10336 10339 10342 10344 10348 10351 10354 10358
10533 10532 10532 10532 10531 10530 10529 10528 10527 10526 10525 10524 10523 10522 10520 10518 10517 10514 10512 10509 10506 10503 10500 10496 10493 10490 10486 10483 10479 10475 10472 10468 10464 10460 10456 10452 10448 10444 10439 10434 10429 10424 10419 10414 10409 10404 10399 10394 10389 10385 10380 10376 10373 10369 10365 10362 10359 10356 10352 10349 10345 10342 10339 10337 10334 10331 10328 10327 10326 10326 10325 10325 10324 10325 10326 10327 10329 10331 10333 10335 10338 10341 10344 10348 10351
10527 10526 10526 10525 10524 10523 10522 10521 10520 10519 10518 10517 10516 10515 10513 10511 10509 10507 10505 10502 10499 10496 10493 10490 10486 10483 10479 10476 10472 10469 10465 10461 10457 10454 10450 10446 10442 10437 10433 10428 10423 10418 10413 10408 10403 10398 10393 10388 10384 10379 10375 10371 10368 10365 10362 10358 10355 10352 10348 10345 10341 10338 10335 10333 10330 10327 10325 10323 10322 10322 10322 10321 10321 10321 10322 10323 10324 10326 10328 10330 10333 10336 10339 10342 10345
10520 10520 10519 10518 10517 10516 10515 10514 10513 10512 10512 10511 10510 10508 10506 10504 10502 10500 10498 10495 10492 10489 10486 10483 10480 10476 10473 10469 10466 10462 10458 10455 10451 10447 10443 10439 10435 10431 10426 10421 10416 10411 10406 10401 10397 10392 10387 10383 10378 10374 10370 10367 10364 10361 10358 10355 10351 10348 10344 10341 10338 10335 10332 10329 10327 10324 10322 10320 10319 10318 10318 10318 10317 10317 10318 10318 10320 10321 10323 10326 10328 10331 10334 10337 10339
10514 10513 10512 10511 10510 10509 10508 10507 10507 10506 10505 10504 10502 10501 10499 10497 10495 10493 10490 10488 10485 10482 10479 10476 10473 10470 10466 10463 10459 10455 10452 10448 10444 10441 10437 10433 10428 10424 10419 10413 10408 10403 10399 10394 10390 10386 10382 10377 10373 10369 10366 10362 10359 10356 10353 10350 10347 10344 10341 10338 10335 10332 10329 10326 10324 10322 10320 10318 10316 10315 10315 10314 10314 10314 10314 10314 10316 10317 10319 10321 10323 10326 10328 10331 10334
10507 10506 10505 10504 10503 10503 10502 10502 10501 10500 10499 10497 10496 10494 10492 10490 10488 10486 10483 10481 10478 10476 10473 10470 10466 10463 10459 10456 10452 10449 10445 10442 10438 10434 10430 10425 10421 10416 10411 10406 10401 10396 10392 10388 10384 10380 10376 10372 10368 10364 10361 10358 10355 10352 10349 10346 10344 10341 10338 10335 10332 10329 10326 10323 10321 10318 10317 10315 10314 10313 10312 10311 10311 10310 10310 10311 10312 10313 10314 10316 10318 10320 10323 10326 10328
10501 10500 10499 10498 10497 10497 10496 10496 10495 10493 10492 10490 10489 10487 10485 10483 10481 10479 10477 10474 10472 10469 10466 10463 10459 10456 10452 10449 10445 10442 10439 10435 10431 10427 10422 10418 10413 10408 10403 10399 10394 10390 10385 10381 10377 10373 10370 10366 10363 10360 10357 10354 10351 10348 10346 10343 10340 10337 10334 10332 10329 10326 10323 10320 10318 10316 10314 10312 10311 10310 10309 10308 10308 10307 10307 10308 10308 10309 10310 10312 10313 10315 10317 10320 10323
10494 10493 10492 10492 10491 10491 10491 10490 10488 10487 10485 10484 10482 10480 10478 10476 10474 10472 10470 10468 10465 10462 10459 10456 10453 10449 10446 10442 10439 10435 10432 10428 10424 10420 10415 10410 10405 10401 10396 10392 10387 10383 10379 10375 10371 10368 10364 10361 10359 10356 10353 10350 10347 10345 10342 10340 10337 10334 10331 10329 10326 10324 10321 10318 10316 10313 10311 10310 10308 10307 10306 10306 10305 10304 10304 10304 10305 10305 10306 10307 10309 10310 10312 10314 10317
10488 10487 10486 10486 10485 10485 10484 10483 10481 10480 10479 10477 10475 10474 10472 10470 10468 10466 10464 10461 10458 10456 10453 10449 10446 10443 10439 10436 10432 10429 10425 10421 10417 10412 10408 10403 10398 10394 10389 10385 10381 10377 10373 10370 10366 10363 10360 10357 10354 10351 10349 10346 10344 10341 10339 10336 10334 10331 10328 10326 10324 10321 10319 10316 10314 10311 10309 10307 10306 10305 10304 10303 10302 10302 10301 10301 10301 10302 10302 10303 10304 10306 10307 10309 10311
10482 10481 10481 10480 10480 10479 10478 10476 10475 10474 10472 10470 10469 10467 10465 10463 10461 10459 10457 10454 10452 10449 10446 10443 10439 10436 10432 10429 10425 10422 10418 10414 10409 10405 10400 10396 10391 10387 10383 10378 10374 10371 10367 10364 10361 10358 10355 10353 10350 10348 10345 10343 10340 10338 10335 10333 10331 10328 10325 10323 10321 10319 10317 10314 10312 10310 10307 10305 10303 10302 10301 10300 10299 10299 10299 10298 10298 10298 10299 10299 10300 10301 10303 10304 10306
10477 10476 10475 10474 10474 10473 10471 10470 10469 10467 10465 10464 10462 10461 10459 10457 10455 10453 10450 10448 10445 10442 10439 10436 10432 10429 10425 10422 10418 10414 10410 10406 10402 10397 10393 10389 10384 10380 10376 10372 10368 10365 10361 10358 10356 10353 10351 10349 10347 10345 10342 10340 10337 10335 10332 10330 10327 10325 10323 10320 10318 10316 10314 10312 10310 10308 10306 10304 10301 10300 10298 10297 10296 10296 10296 10295 10295 10295 10295 10295 10296 10297 10298 10299 10301
10471 10470 10470 10469 10468 10467 10465 10464 10462 10461 10459 10458 10456 10455 10453 10451 10449 10446 10444 10441 10438 10435 10432 10428 10425 10422 10419 10415 10411 10407 10403 10398 10394 10390 10385 10381 10377 10373 10369 10365 10362 10359 10356 10353 10351 10349 10347 10345 10343 10341 10339 10337 10334 10332 10329 10327 10324 10322 10320 10317 10315 10313 10311 10309 10307 10305 10303 10302 10300 10298 10296 10294 10293 10293 10292 10292 10292 10292 10292 10292 10292 10293 10293 10294 10295
10466 10465 10464 10463 10462 10460 10459 10458 10456 10455 10453 10452 10450 10449 10447 10444 10442 10440 10437 10434 10431 10428 10424 10421 10418 10415 10411 10408 10404 10400 10395 10391 10386 10382 10378 10374 10370 10366 10363 10359 10356 10353 10351 10349 10347 10345 10343 10341 10339 10337 10335 10333 10331 10329 10327 10324 10322 10319 10317 10315 10313 10311 10308 10306 10304 10302 10301 10299 10297 10296 10294 10292 10291 10290 10289 10288 10288 10288 10288 10289 10289 10289 10289 10290 10290
10460 10459 10458 10457 10456 10455 10453 10452 10450 10449 10447 10446 10444 10442 10440 10438 10436 10433 10430 10427 10424 10421 10418 10414 10411 10407 10404 10400 10396 10392 10387 10383 10379 10375 10371 10367 10363 10360 10356 10353 10351 10348 10346 10344 10342 10340 10339 10337 10335 10333 10331 10329 10327 10325 10323 10321 10319 10317 10315 10312 10310 10308 10306 10304 10302 10300 10298 10296 10295 10293 10292 10290 10289 10287 10286 10285 10285 10284 10284 10284 10285 10285 10285 10285 10286
10454 10453 10452 10451 10450 10448 10447 10446 10445 10443 10441 10440 10438 10436 10434 10432 10429 10426 10424 10421 10418 10415 10411 10408 10404 10401 10397 10392 10388 10384 10380 10376 10372 10368 10364 10360 10357 10353 10351 10348 10346 10343 10341 10340 10338 10336 10334 10332 10330 10328 10327 10325 10323 10321 10320 10318 10316 10314 10311 10309 10307 10305 10303 10301 10299 10297 10295 10294 10292 10290 10289 10287 10286 10285 10284 10283 10282 10281 10280 10280 10280 10280 10281 10281 10281
10448 10447 10446 10445 10444 10442 10441 10440 10438 10437 10435 10433 10431 10429 10427 10425 10422 10420 10417 10414 10411 10408 10405 10401 10398 10394 10390 10386 10381 10377 10373 10369 10365 10361 10357 10354 10351 10348 10345 10343 10341 10339 10337 10335 10333 10332 10330 10328 10326 10324 10322 10321 10319 10317 10316 10314 10312 10310 10308 10306 10304 10302 10300 10299 10297 10295 10293 10291 10289 10288 10286 10285 10283 10282 10281 10280 10279 10278 10277 10276 10276 10275 10276 10276 10276
10442 10441 10440 10439 10438 10436 10435 10434 10432 10430 10429 10427 10425 10423 10420 10418 10415 10413 10410 10407 10405 10402 10399 10395 10391 10387 10383 10379 10374 10370 10366 10362 10358 10354 10351 10348 10345 10343 10340 10338 10336 10335 10333 10331 10329 10327 10325 10323 10321 10320 10318 10316 10315 10313 10311 10310 10308 10306 10304 10303 10301 10299 10297 10295 10293 10292 10290 10289 10287 10285 10283 10282 10280 10279 10278 10276 10275 10274 10273 10273 10272 10271 10271 10271 10270
10436 10435 10434 10433 10432 10431 10429 10427 10426 10424 10422 10420 10418 10416 10413 10411 10409 10406 10404 10401 10398 10395 10392 10388 10384 10380 10376 10372 10368 10363 10359 10355 10352 10348 10345 10342 10340 10338 10336 10334 10332 10330 10328 10326 10324 10323 10321 10319 10317 10316 10314 10312 10310 10309 10307 10305 10304 10302 10300 10299 10297 10295 10294 10292 10290 10288 10287 10285 10284 10282 10280 10279 10277 10276 10274 10273 10272 10271 10270 10269 10268 10267 10266 10266 10265
10430 10429 10428 10427 10426 10424 10423 10421 10419 10417 10416 10414 10411 10409 10407 10404 10402 10400 10397 10394 10391 10388 10385 10381 10377 10373 10369 10365 10361 10357 10353 10349 10346 10343 10340 10338 10336 10333 10331 10329 10328 10326 10324 10322 10320 10318 10317 10315 10313 10312 10310 10308 10307 10305 10303 10301 10300 10298 10297 10295 10293 10292 10290 10288 10287 10285 10283 10282 10280 10278 10277 10275 10274 10272 10271 10270 10268 10267 10266 10265 10264 10263 10262 10261 10260
10424 10423 10422 10421 10419 10418 10416 10414 10413 10411 10409 10407 10404 10402 10400 10398 10395 10393 10390 10387 10384 10381 10377 10374 10370 10366 10362 10358 10354 10350 10347 10343 10341 10338 10336 10333 10331 10329 10327 10325 10323 10322 10320 10318 10316 10314 10313 10311 10309 10308 10306 10304 10303 10301 10299 10298 10296 10295 10293 10292 10290 10288 10287 10285 10283 10281 10279 10278 10276 10275 10273 10271 10270 10268 10267 10265 10264 10263 10262 10261 10259 10258 10257 10256 10255
10418 10417 10416 10414 10413 10411 10410 10408 10406 10404 10402 10400 10398 10395 10393 10391 10388 10386 10383 10380 10376 10373 10369 10366 10362 10359 10355 10351 10347 10344 10341 10338 10336 10334 10331 10329 10327 10325 10323 10321 10319 10318 10316 10314 10312 10311 10309 10307 10305 10304 10302 10300 10298 10297 10295 10293 10292 10290 10288 10287 10286 10285 10283 10281 10279 10277 10276 10274 10272 10270 10269 10267 10266 10264 10263 10261 10260 10258 10257 10256 10254 10253 10252 10251 10250
10412 10411 10409 10408 10406 10405 10403 10401 10399 10397 10395 10393 10391 10389 10386 10384 10381 10378 10375 10372 10368 10365 10361 10358 10354 10351 10347 10344 10341 10338 10336 10334 10331 10329 10327 10325 10323 10321 10319 10317 10316 10314 10312 10310 10309 10307 10305 10303 10301 10300 10298 10296 10294 10293 10291 10289 10288 10286 10284 10282 10281 10280 10278 10277 10275 10273 10271 10270 10268 10266 10264 10263 10261 10259 10258 10256 10255 10254 10252 10251 10249 10248 10247 10246 10244
10405 10404 10403 10401 10400 10398 10396 10394 10393 10391 10389 10386 10384 10382 10379 10377 10374 10371 10367 10364 10361 10357 10354 10350 10347 10343 10340 10338 10335 10333 10331 10329 10326 10325 10323 10321 10319 10317 10315 10313 10312 10310 10309 10307 10305 10303 10301 10299 10297 10295 10294 10292 10290 10288 10287 10285 10283 10282 10280 10278 10276 10275 10273 10272 10270 10268 10266 10264 10263 10261 10260 10258 10256 10254 10253 10251 10250 10248 10247 10245 10244 10242 10241 10240 10238
10399 10398 10396 10395 10394 10392 10390 10388 10386 10384 10382 10380 10377 10375 10373 10370 10367 10363 10360 10356 10353 10350 10346 10343 10340 10337 10334 10331 10329 10327 10325 10323 10321 10320 10318 10316 10314 10312 10311 10309 10307 10306 10304 10302 10301 10299 10297 10295 10293 10291 10289 10287 10285 10283 10282 10280 10278 10277 10275 10273 10271 10270 10268 10267 10265 10263 10261 10259 10257 10255 10253 10252 10251 10249 10247 10246 10244 10243 10241 10239 10238 10236 10235 10233 10232
10393 10391 10390 10389 10387 10385 10383 10381 10380 10378 10376 10373 10371 10368 10365 10362 10359 10356 10352 10349 10346 10342 10339 10336 10333 10331 10328 10326 10324 10322 10320 10318 10316 10315 10313 10311 10309 10308 10306 10304 10303 10301 10299 10297 10295 10294 10292 10290 10288 10286 10284 10282 10280 10277 10275 10273 10272 10271 10269 10267 10266 10264 10262 10261 10259 10257 10256 10254 10251 10249 10246 10245 10243 10242 10240 10239 10238 10236 10235 10233 10231 10230 10228 10227 10225